sat.trackr.live / text

‹ back to catalog

STARLINK-2235

NORAD 48581 · 2021-041AE

PAYLOAD ACTIVE UNKNOWN

§ Identity

Operator
Country
US
Launch date
2021-05-15
Launch site
AFETR
Launch vehicle
Mass (kg)
RCS (m²)

Purposes: comms

External: N2YO · Heavens-Above · Gunter

§ Orbital elements

Epoch: 2026-05-25T03:37:15.503232Z

Period
94.01 min
Inclination
53.1595°
Eccentricity
0.0001216
Mean motion
15.31698369 rev/d
Perigee alt
469.9 km
Apogee alt
471.6 km
Semi-major
6,848.9 km
B*
-9.3801e-6
RAAN
108.2273°
Arg perigee
66.0509°
Mean anomaly
294.0620°
Rev number
27,730

§ Raw data

STARLINK-22351 48581U 21041AE  26145.15087388 -.00000656  00000+0 -93801-5 0  99962 48581  53.1595 108.2273 0001216  66.0509 294.0620 15.31698369277308

JSON: /api/v1/satellites/48581 · /tle

For live sub-satellite position, see the globe view (requires WebGL).

§ Visibility from observer

Set your observer location to see the next 7 days of passes ≥ 10°. The values pass through the URL so the page stays shareable.

No JS? Fill the form by hand. The geolocation button needs JavaScript.